TimeCDT,TemperatureF,Dew PointF,Humidity,Sea Level PressureIn,VisibilityMPH,Wind Direction,Wind SpeedMPH,Gust SpeedMPH,PrecipitationIn,Events,Conditions,WindDirDegrees,DateUTC
12:13 AM,68.2,55.8,64,30.13,10.0,SSE,3.5,-,N/A,,Clear,160,2013-08-18 05:13:00
12:32 AM,67.6,55.8,66,30.13,10.0,Calm,Calm,-,N/A,,Clear,0,2013-08-18 05:32:00
12:53 AM,66.6,56.7,70,30.13,10.0,Calm,Calm,-,N/A,,Clear,0,2013-08-18 05:53:00
1:13 AM,66.2,55.9,69,30.13,10.0,South,3.5,-,N/A,,Clear,180,2013-08-18 06:13:00
1:33 AM,67.3,54.9,64,30.13,10.0,SSW,4.6,-,N/A,,Clear,200,2013-08-18 06:33:00
1:53 AM,67.3,54.7,64,30.13,10.0,SSW,5.8,-,N/A,,Clear,200,2013-08-18 06:53:00
2:13 AM,68.0,54.7,62,30.13,10.0,SSW,6.9,-,N/A,,Clear,200,2013-08-18 07:13:00
2:33 AM,68.0,54.5,62,30.13,10.0,SSW,6.9,-,N/A,,Clear,200,2013-08-18 07:33:00
2:53 AM,68.0,54.5,62,30.13,10.0,SSW,6.9,-,N/A,,Clear,210,2013-08-18 07:53:00
3:13 AM,67.5,54.5,63,30.13,10.0,SSW,6.9,-,N/A,,Clear,200,2013-08-18 08:13:00
3:33 AM,67.3,54.5,63,30.13,10.0,SSW,6.9,-,N/A,,Clear,200,2013-08-18 08:33:00
3:53 AM,66.7,54.5,65,30.14,10.0,SSW,5.8,-,N/A,,Clear,200,2013-08-18 08:53:00
4:13 AM,66.0,54.5,66,30.14,10.0,South,4.6,-,N/A,,Clear,180,2013-08-18 09:13:00
4:33 AM,65.7,54.5,67,30.14,10.0,South,4.6,-,N/A,,Clear,170,2013-08-18 09:33:00
4:53 AM,65.1,54.5,68,30.14,10.0,South,3.5,-,N/A,,Clear,170,2013-08-18 09:53:00
5:13 AM,64.8,54.7,70,30.14,10.0,South,3.5,-,N/A,,Clear,170,2013-08-18 10:13:00
5:33 AM,64.4,54.7,71,30.14,10.0,SW,3.5,-,N/A,,Clear,220,2013-08-18 10:33:00
5:53 AM,64.0,54.7,72,30.14,10.0,Calm,Calm,-,N/A,,Clear,0,2013-08-18 10:53:00
6:13 AM,62.4,55.6,78,30.14,10.0,Calm,Calm,-,N/A,,Clear,0,2013-08-18 11:13:00
6:33 AM,62.1,55.8,80,30.15,10.0,Calm,Calm,-,N/A,,Clear,0,2013-08-18 11:33:00
6:52 AM,62.2,55.6,79,30.15,10.0,Calm,Calm,-,N/A,,Clear,0,2013-08-18 11:52:00
7:13 AM,63.0,55.9,78,30.15,10.0,Calm,Calm,-,N/A,,Clear,0,2013-08-18 12:13:00
7:33 AM,66.2,55.6,69,30.15,10.0,Calm,Calm,-,N/A,,Clear,0,2013-08-18 12:33:00
7:52 AM,67.3,55.6,66,30.15,10.0,South,3.5,-,N/A,,Clear,170,2013-08-18 12:52:00
8:13 AM,68.5,55.8,64,30.15,10.0,South,5.8,-,N/A,,Clear,190,2013-08-18 13:13:00
8:33 AM,69.8,56.1,62,30.15,10.0,South,4.6,-,N/A,,Clear,180,2013-08-18 13:33:00
8:53 AM,70.9,56.3,60,30.15,10.0,SSE,5.8,-,N/A,,Clear,160,2013-08-18 13:53:00
9:13 AM,72.0,57.2,60,30.15,10.0,South,4.6,-,N/A,,Clear,180,2013-08-18 14:13:00
9:33 AM,73.6,57.6,57,30.15,10.0,South,4.6,-,N/A,,Clear,180,2013-08-18 14:33:00
9:53 AM,74.3,57.6,56,30.15,10.0,SSW,6.9,-,N/A,,Clear,200,2013-08-18 14:53:00
10:13 AM,75.2,57.4,54,30.15,10.0,SSW,4.6,-,N/A,,Clear,210,2013-08-18 15:13:00
10:33 AM,77.2,57.6,51,30.15,10.0,SSE,6.9,-,N/A,,Clear,160,2013-08-18 15:33:00
10:53 AM,78.1,57.0,48,30.14,10.0,SSW,9.2,-,N/A,,Clear,200,2013-08-18 15:53:00
11:13 AM,79.0,56.8,46,30.13,10.0,SW,11.5,-,N/A,,Clear,220,2013-08-18 16:13:00
11:33 AM,79.9,56.3,44,30.12,10.0,SSW,10.4,-,N/A,,Clear,210,2013-08-18 16:33:00
11:53 AM,81.1,55.6,41,30.12,10.0,South,6.9,-,N/A,,Clear,190,2013-08-18 16:53:00
12:13 PM,81.9,54.1,38,30.12,10.0,South,15.0,19.6,N/A,,Scattered Clouds,190,2013-08-18 17:13:00
12:33 PM,81.3,52.0,36,30.11,10.0,SW,15.0,18.4,N/A,,Scattered Clouds,220,2013-08-18 17:33:00
12:53 PM,81.5,52.7,37,30.10,10.0,SSW,13.8,18.4,N/A,,Clear,200,2013-08-18 17:53:00
1:12 PM,82.0,53.8,38,30.09,10.0,WSW,15.0,18.4,N/A,,Scattered Clouds,240,2013-08-18 18:12:00
1:33 PM,82.2,54.3,38,30.08,10.0,South,15.0,21.9,N/A,,Scattered Clouds,180,2013-08-18 18:33:00
1:53 PM,83.7,54.0,36,30.07,7.0,SSW,13.8,20.7,N/A,,Scattered Clouds,210,2013-08-18 18:53:00
2:13 PM,83.5,54.7,37,30.07,7.0,SW,12.7,21.9,N/A,,Clear,220,2013-08-18 19:13:00
2:33 PM,82.9,54.3,37,30.08,10.0,SW,9.2,18.4,N/A,,Clear,230,2013-08-18 19:33:00
2:53 PM,83.7,54.1,36,30.08,10.0,SSW,10.4,-,N/A,,Scattered Clouds,210,2013-08-18 19:53:00
3:13 PM,83.5,54.5,37,30.09,10.0,South,11.5,-,N/A,,Scattered Clouds,190,2013-08-18 20:13:00
3:33 PM,84.0,54.1,36,30.08,10.0,SW,11.5,-,N/A,,Scattered Clouds,220,2013-08-18 20:33:00
3:52 PM,83.5,54.0,36,30.08,10.0,SSW,10.4,20.7,N/A,,Scattered Clouds,210,2013-08-18 20:52:00
4:13 PM,84.4,53.8,35,30.07,10.0,SSW,10.4,17.3,N/A,,Scattered Clouds,210,2013-08-18 21:13:00
4:33 PM,83.5,52.9,35,30.07,10.0,SSW,12.7,-,N/A,,Clear,210,2013-08-18 21:33:00
4:53 PM,82.4,53.6,37,30.06,10.0,SSW,11.5,-,N/A,,Clear,200,2013-08-18 21:53:00
5:13 PM,82.8,54.5,38,30.05,10.0,SSW,9.2,-,N/A,,Clear,200,2013-08-18 22:13:00
5:32 PM,82.8,54.1,37,30.04,10.0,SSW,11.5,-,N/A,,Clear,210,2013-08-18 22:32:00
5:53 PM,82.8,54.1,37,30.04,10.0,South,9.2,-,N/A,,Clear,180,2013-08-18 22:53:00
6:13 PM,81.7,54.3,39,30.04,10.0,SSW,8.1,-,N/A,,Clear,210,2013-08-18 23:13:00
6:33 PM,81.0,54.9,41,30.03,10.0,SSW,9.2,-,N/A,,Clear,210,2013-08-18 23:33:00
6:53 PM,81.0,55.4,41,30.03,10.0,SSW,9.2,-,N/A,,Scattered Clouds,210,2013-08-18 23:53:00
7:13 PM,80.6,56.3,43,30.03,10.0,SW,8.1,-,N/A,,Scattered Clouds,220,2013-08-19 00:13:00
7:33 PM,79.9,56.3,44,30.03,10.0,SW,6.9,-,N/A,,Clear,220,2013-08-19 00:33:00
7:53 PM,78.8,56.8,47,30.03,10.0,SSW,4.6,-,N/A,,Clear,200,2013-08-19 00:53:00
8:13 PM,77.5,57.2,49,30.03,10.0,SSW,3.5,-,N/A,,Clear,200,2013-08-19 01:13:00
8:33 PM,76.5,57.2,51,30.03,10.0,South,4.6,-,N/A,,Clear,190,2013-08-19 01:33:00
8:53 PM,75.2,57.9,55,30.02,10.0,South,4.6,-,N/A,,Clear,180,2013-08-19 01:53:00
9:13 PM,75.0,58.1,56,30.02,10.0,South,5.8,-,N/A,,Clear,170,2013-08-19 02:13:00
9:33 PM,73.4,59.2,61,30.02,10.0,South,5.8,-,N/A,,Clear,180,2013-08-19 02:33:00
9:53 PM,73.0,59.5,62,30.02,10.0,South,4.6,-,N/A,,Clear,170,2013-08-19 02:53:00
10:13 PM,72.7,59.4,63,30.02,10.0,South,4.6,-,N/A,,Clear,170,2013-08-19 03:13:00
10:33 PM,72.0,59.4,64,30.02,10.0,South,4.6,-,N/A,,Clear,170,2013-08-19 03:33:00
10:53 PM,70.9,59.2,66,30.02,10.0,South,3.5,-,N/A,,Clear,170,2013-08-19 03:53:00
11:13 PM,70.7,59.4,67,30.03,10.0,Calm,Calm,-,N/A,,Clear,0,2013-08-19 04:13:00
11:33 PM,69.8,59.2,69,30.03,10.0,Calm,Calm,-,N/A,,Clear,0,2013-08-19 04:33:00
11:52 PM,69.8,59.5,70,30.03,10.0,South,3.5,-,N/A,,Scattered Clouds,170,2013-08-19 04:52:00